| time (UTC) | temp F | wind direction | speed knots | gust knots | rain 1hr in | rain 24hr in | rain mn in | humidity % | barometer mb |
| 20260507142812 | 93 | 0.0 | 0.0 | 0.00 | 0.00 | 0.00 | 44 | 1005.1 | |
| 20260507141808 | 93 | 0.0 | 0.0 | 0.00 | 0.00 | 0.00 | 44 | 1005.1 | |
| 20260507140804 | 93 | 0.0 | 0.0 | 0.00 | 0.00 | 0.00 | 44 | 1005.2 | |
| 20260507135800 | 93 | 0.0 | 0.0 | 0.00 | 0.00 | 0.00 | 44 | 1005.2 | |
| 20260507134756 | 93 | 0.0 | 0.0 | 0.00 | 0.00 | 0.00 | 44 | 1005.1 | |
| 20260507133752 | 93 | 0.0 | 0.0 | 0.00 | 0.00 | 0.00 | 44 | 1004.9 | |
| 20260507131743 | 93 | 0.0 | 0.0 | 0.00 | 0.00 | 0.00 | 43 | 1004.6 | |
| 20260507130739 | 93 | 0.0 | 0.0 | 0.00 | 0.00 | 0.00 | 43 | 1004.5 | |
| 20260507125735 | 93 | 0.0 | 0.0 | 0.00 | 0.00 | 0.00 | 43 | 1004.6 | |
| 20260507124731 | 93 | 0.0 | 0.0 | 0.00 | 0.00 | 0.00 | 43 | 1004.5 | |
| 20260507123728 | 93 | 0.0 | 0.0 | 0.00 | 0.00 | 0.00 | 43 | 1004.6 | |
| 20260507122724 | 93 | 0.0 | 0.0 | 0.00 | 0.00 | 0.00 | 43 | 1004.6 | |
| 20260507121719 | 92 | 0.0 | 0.0 | 0.00 | 0.00 | 0.00 | 44 | 1004.6 | |
| 20260507120715 | 92 | 0.0 | 0.0 | 0.00 | 0.00 | 0.00 | 43 | 1004.4 | |
| 20260507115711 | 92 | 0.0 | 0.0 | 0.00 | 0.00 | 0.00 | 43 | 1004.2 | |
| 20260507114707 | 92 | 0.0 | 0.0 | 0.00 | 0.00 | 0.00 | 43 | 1004.1 | |
| 20260507113702 | 92 | 0.0 | 0.0 | 0.00 | 0.00 | 0.00 | 42 | 1004.1 | |
| 20260507112658 | 92 | 0.0 | 0.0 | 0.00 | 0.00 | 0.00 | 45 | 1003.9 | |
| 20260507111654 | 92 | 0.0 | 0.0 | 0.00 | 0.00 | 0.00 | 45 | 1003.8 | |
| 20260507110650 | 92 | 0.0 | 0.0 | 0.00 | 0.00 | 0.00 | 45 | 1003.7 | |
| 20260507104643 | 92 | 0.0 | 0.0 | 0.00 | 0.00 | 0.00 | 45 | 1003.4 | |
| 20260507103638 | 92 | 0.0 | 0.0 | 0.00 | 0.00 | 0.00 | 45 | 1003.3 | |
| 20260507102634 | 92 | 0.0 | 0.0 | 0.00 | 0.00 | 0.00 | 45 | 1003.3 | |
| 20260507101630 | 92 | 0.0 | 0.0 | 0.00 | 0.00 | 0.00 | 45 | 1003.3 | |
| 20260507100626 | 92 | 0.0 | 0.0 | 0.00 | 0.00 | 0.00 | 45 | 1003.4 | |
| 20260507095622 | 92 | 0.0 | 0.0 | 0.00 | 0.00 | 0.00 | 45 | 1003.3 | |
| 20260507094617 | 92 | 0.0 | 0.0 | 0.00 | 0.00 | 0.00 | 45 | 1003.2 | |
| 20260507092610 | 92 | 0.0 | 0.0 | 0.00 | 0.00 | 0.00 | 45 | 1003.1 | |
| 20260507091605 | 92 | 0.0 | 0.0 | 0.00 | 0.00 | 0.00 | 45 | 1003.1 | |
| 20260507090601 | 92 | 0.0 | 0.0 | 0.00 | 0.00 | 0.00 | 45 | 1003.1 | |
| 20260507085556 | 91 | 0.0 | 0.0 | 0.00 | 0.00 | 0.00 | 45 | 1003.1 | |
| 20260507084553 | 91 | 0.0 | 0.0 | 0.00 | 0.00 | 0.00 | 45 | 1003.3 | |
| 20260507083549 | 91 | 0.0 | 0.0 | 0.00 | 0.00 | 0.00 | 45 | 1003.4 | |
| 20260507082544 | 91 | 0.0 | 0.0 | 0.00 | 0.00 | 0.00 | 45 | 1003.3 | |
| 20260507081540 | 91 | 0.0 | 0.0 | 0.00 | 0.00 | 0.00 | 45 | 1003.5 | |
| 20260507075532 | 91 | 0.0 | 0.0 | 0.00 | 0.00 | 0.00 | 45 | 1003.4 | |
| 20260507073524 | 91 | 0.0 | 0.0 | 0.00 | 0.00 | 0.00 | 46 | 1003.7 | |
| 20260507072520 | 91 | 0.0 | 0.0 | 0.00 | 0.00 | 0.00 | 46 | 1003.8 | |
| 20260507071516 | 91 | 0.0 | 0.0 | 0.00 | 0.00 | 0.00 | 46 | 1003.9 | |
| 20260507070512 | 91 | 0.0 | 0.0 | 0.00 | 0.00 | 0.00 | 46 | 1004.0 | |
| 20260507065508 | 91 | 0.0 | 0.0 | 0.00 | 0.00 | 0.00 | 46 | 1004.2 | |
| 20260507064504 | 91 | 0.0 | 0.0 | 0.00 | 0.00 | 0.00 | 46 | 1004.2 | |
| 20260507063459 | 91 | 0.0 | 0.0 | 0.00 | 0.00 | 0.00 | 46 | 1004.4 | |
| 20260507062455 | 91 | 0.0 | 0.0 | 0.00 | 0.00 | 0.00 | 46 | 1004.5 | |
| 20260507060447 | 91 | 0.0 | 0.0 | 0.00 | 0.00 | 0.00 | 46 | 1004.4 | |
| 20260507055442 | 91 | 0.0 | 0.0 | 0.00 | 0.00 | 0.00 | 46 | 1004.7 | |
| 20260507054438 | 90 | 0.0 | 0.0 | 0.00 | 0.00 | 0.00 | 46 | 1004.7 | |
| 20260507051426 | 90 | 0.0 | 0.0 | 0.00 | 0.00 | 0.00 | 46 | 1004.9 | |
| 20260507050422 | 90 | 0.0 | 0.0 | 0.00 | 0.00 | 0.00 | 46 | 1004.9 | |
| 20260507045418 | 90 | 0.0 | 0.0 | 0.00 | 0.00 | 0.00 | 46 | 1004.8 | |
| 20260507044414 | 90 | 0.0 | 0.0 | 0.00 | 0.00 | 0.00 | 46 | 1004.9 | |
| 20260507041401 | 89 | 0.0 | 0.0 | 0.00 | 0.00 | 0.00 | 44 | 1004.9 | |
| 20260507040358 | 89 | 0.0 | 0.0 | 0.00 | 0.00 | 0.00 | 43 | 1004.7 | |
| 20260507034349 | 89 | 0.0 | 0.0 | 0.00 | 0.00 | 0.00 | 43 | 1004.6 | |
| 20260507033345 | 88 | 0.0 | 0.0 | 0.00 | 0.00 | 0.00 | 44 | 1004.5 | |
| 20260507032341 | 88 | 0.0 | 0.0 | 0.00 | 0.00 | 0.00 | 43 | 1004.5 | |
| 20260507031337 | 88 | 0.0 | 0.0 | 0.00 | 0.00 | 0.00 | 43 | 1004.4 | |
| 20260507030332 | 87 | 0.0 | 0.0 | 0.00 | 0.00 | 0.00 | 42 | 1004.3 | |
| 20260507025328 | 87 | 0.0 | 0.0 | 0.00 | 0.00 | 0.00 | 38 | 1004.2 | |
| 20260507024326 | 86 | 0.0 | 0.0 | 0.00 | 0.00 | 0.00 | 37 | 1004.1 | |
| 20260507023321 | 86 | 0.0 | 0.0 | 0.00 | 0.00 | 0.00 | 38 | 1004.0 | |
| 20260507022316 | 86 | 0.0 | 0.0 | 0.00 | 0.00 | 0.00 | 34 | 1004.0 | |
| 20260507021312 | 86 | 0.0 | 0.0 | 0.00 | 0.00 | 0.00 | 38 | 1004.0 | |
| 20260507020308 | 86 | 0.0 | 0.0 | 0.00 | 0.00 | 0.00 | 35 | 1003.9 | |
| 20260507015306 | 87 | 0.0 | 0.0 | 0.00 | 0.00 | 0.00 | 34 | 1003.8 | |
| 20260507014300 | 87 | 0.0 | 0.0 | 0.00 | 0.00 | 0.00 | 34 | 1003.7 | |
| 20260507012252 | 87 | 0.0 | 0.0 | 0.00 | 0.00 | 0.00 | 34 | 1003.6 | |
| 20260507011247 | 87 | 0.0 | 0.0 | 0.00 | 0.00 | 0.00 | 34 | 1003.5 | |
| 20260507010243 | 88 | 0.0 | 0.0 | 0.00 | 0.00 | 0.00 | 34 | 1003.4 | |
| 20260507005239 | 88 | 0.0 | 0.0 | 0.00 | 0.00 | 0.00 | 35 | 1003.4 | |
| 20260507004235 | 88 | 0.0 | 0.0 | 0.00 | 0.00 | 0.00 | 34 | 1003.3 | |
| 20260507003231 | 88 | 0.0 | 0.0 | 0.00 | 0.00 | 0.00 | 32 | 1003.2 | |
| 20260507002227 | 88 | 0.0 | 0.0 | 0.00 | 0.00 | 0.00 | 30 | 1003.2 | |
| 20260507001223 | 89 | 0.0 | 0.0 | 0.00 | 0.00 | 0.00 | 28 | 1003.3 | |
| 20260507000219 | 90 | 0.0 | 0.0 | 0.00 | 0.00 | 0.00 | 32 | 1003.3 | |
| 20260506235215 | 91 | 0.0 | 0.0 | 0.00 | 0.00 | 0.00 | 36 | 1003.2 | |
| 20260506234210 | 91 | 0.0 | 0.0 | 0.00 | 0.00 | 0.00 | 36 | 1003.1 | |
| 20260506233206 | 92 | 0.0 | 0.0 | 0.00 | 0.00 | 0.00 | 37 | 1003.2 | |
| 20260506232203 | 92 | 0.0 | 0.0 | 0.00 | 0.00 | 0.00 | 36 | 1003.1 | |
| 20260506231158 | 93 | 0.0 | 0.0 | 0.00 | 0.00 | 0.00 | 33 | 1003.0 | |
| 20260506230154 | 94 | 0.0 | 0.0 | 0.00 | 0.00 | 0.00 | 42 | 1002.8 | |
| 20260506224145 | 95 | 0.0 | 0.0 | 0.00 | 0.00 | 0.00 | 45 | 1002.6 | |
| 20260506223142 | 95 | 0.0 | 0.0 | 0.00 | 0.00 | 0.00 | 45 | 1002.5 | |
| 20260506220130 | 95 | 0.0 | 0.0 | 0.00 | 0.00 | 0.00 | 46 | 1002.3 | |
| 20260506215126 | 94 | 0.0 | 0.0 | 0.00 | 0.00 | 0.00 | 46 | 1002.2 | |
| 20260506213117 | 94 | 0.0 | 0.0 | 0.00 | 0.00 | 0.00 | 45 | 1002.1 | |
| 20260506212113 | 94 | 0.0 | 0.0 | 0.00 | 0.00 | 0.00 | 45 | 1002.2 | |
| 20260506211109 | 94 | 0.0 | 0.0 | 0.00 | 0.00 | 0.00 | 45 | 1002.1 | |
| 20260506210104 | 94 | 0.0 | 0.0 | 0.00 | 0.00 | 0.00 | 46 | 1002.1 | |
| 20260506205100 | 94 | 0.0 | 0.0 | 0.00 | 0.00 | 0.00 | 46 | 1002.4 | |
| 20260506203053 | 94 | 0.0 | 0.0 | 0.00 | 0.00 | 0.00 | 46 | 1002.5 | |
| 20260506202048 | 94 | 0.0 | 0.0 | 0.00 | 0.00 | 0.00 | 45 | 1002.6 | |
| 20260506201044 | 94 | 0.0 | 0.0 | 0.00 | 0.00 | 0.00 | 45 | 1002.7 | |
| 20260506194032 | 94 | 0.0 | 0.0 | 0.00 | 0.00 | 0.00 | 47 | 1002.7 | |
| 20260506193027 | 94 | 0.0 | 0.0 | 0.00 | 0.00 | 0.00 | 48 | 1002.7 | |
| 20260506192023 | 94 | 0.0 | 0.0 | 0.00 | 0.00 | 0.00 | 50 | 1002.9 | |
| 20260506191020 | 94 | 0.0 | 0.0 | 0.00 | 0.00 | 0.00 | 50 | 1003.0 | |
| 20260506190016 | 94 | 0.0 | 0.0 | 0.00 | 0.00 | 0.00 | 49 | 1003.0 | |
| 20260506185011 | 94 | 0.0 | 0.0 | 0.00 | 0.00 | 0.00 | 49 | 1003.2 | |
| 20260506184007 | 94 | 0.0 | 0.0 | 0.00 | 0.00 | 0.00 | 48 | 1003.3 | |
| 20260506183003 | 94 | 0.0 | 0.0 | 0.00 | 0.00 | 0.00 | 48 | 1003.5 | |
| 20260506181959 | 94 | 0.0 | 0.0 | 0.00 | 0.00 | 0.00 | 48 | 1003.7 | |
| 20260506180955 | 94 | 0.0 | 0.0 | 0.00 | 0.00 | 0.00 | 48 | 1003.8 | |
| 20260506175950 | 93 | 0.0 | 0.0 | 0.00 | 0.00 | 0.00 | 48 | 1003.9 | |
| 20260506174946 | 93 | 0.0 | 0.0 | 0.00 | 0.00 | 0.00 | 49 | 1003.9 | |
| 20260506173942 | 93 | 0.0 | 0.0 | 0.00 | 0.00 | 0.00 | 49 | 1004.1 | |
| 20260506172938 | 93 | 0.0 | 0.0 | 0.00 | 0.00 | 0.00 | 51 | 1004.3 | |
| 20260506171934 | 93 | 0.0 | 0.0 | 0.00 | 0.00 | 0.00 | 49 | 1004.4 | |
| 20260506170930 | 93 | 0.0 | 0.0 | 0.00 | 0.00 | 0.00 | 49 | 1004.5 | |
| 20260506165925 | 93 | 0.0 | 0.0 | 0.00 | 0.00 | 0.00 | 49 | 1004.6 | |
| 20260506164922 | 93 | 0.0 | 0.0 | 0.00 | 0.00 | 0.00 | 50 | 1004.7 | |
| 20260506161910 | 93 | 0.0 | 0.0 | 0.00 | 0.00 | 0.00 | 49 | 1005.0 | |
| 20260506155901 | 93 | 0.0 | 0.0 | 0.00 | 0.00 | 0.00 | 49 | 1005.2 | |
| 20260506154857 | 93 | 0.0 | 0.0 | 0.00 | 0.00 | 0.00 | 47 | 1005.3 | |
| 20260506153853 | 93 | 0.0 | 0.0 | 0.00 | 0.00 | 0.00 | 47 | 1005.4 | |
| 20260506152837 | 93 | 0.0 | 0.0 | 0.00 | 0.00 | 0.00 | 47 | 1005.4 | |
| 20260506151833 | 93 | 0.0 | 0.0 | 0.00 | 0.00 | 0.00 | 47 | 1005.5 | |
| 20260506150828 | 93 | 0.0 | 0.0 | 0.00 | 0.00 | 0.00 | 44 | 1005.4 | |
| 20260506145824 | 93 | 0.0 | 0.0 | 0.00 | 0.00 | 0.00 | 43 | 1005.3 | |
| 20260506144820 | 93 | 0.0 | 0.0 | 0.00 | 0.00 | 0.00 | 42 | 1005.3 | |
| 20260506143816 | 93 | 0.0 | 0.0 | 0.00 | 0.00 | 0.00 | 42 | 1005.1 |